Radiation Dose at Monitoring Post of Fukushima Daini Nuclear Power Station
Date,Time,MP-1(microSv/h),MP-2(microSv/h),MP-3(microSv/h),MP-4(microSv/h),MP-5(microSv/h),MP-6(microSv/h),MP-7(microSv/h),Wind Direction,Wind Velocity(m/s),Rain
2017/03/26,00:00,0.389,0.235,0.399,0.368,0.333,0.195,0.163,southwest,1.6,No
2017/03/26,00:10,0.388,0.234,0.399,0.368,0.332,0.194,0.165,west-southwest,0.8,No
2017/03/26,00:20,0.389,0.235,0.398,0.367,0.334,0.194,0.164,west-southwest,0.7,No
2017/03/26,00:30,0.388,0.234,0.398,0.368,0.335,0.193,0.165,west-northwest,0.6,No
2017/03/26,00:40,0.391,0.234,0.398,0.367,0.333,0.195,0.165,-,CALM,No
2017/03/26,00:50,0.389,0.234,0.398,0.368,0.333,0.194,0.165,north-northwest,0.6,No
2017/03/26,01:00,0.389,0.233,0.398,0.367,0.333,0.195,0.165,north-northwest,1.0,No
2017/03/26,01:10,0.388,0.235,0.400,0.367,0.332,0.193,0.165,north-northeast,0.8,No
2017/03/26,01:20,0.390,0.235,0.398,0.367,0.333,0.194,0.164,north,1.1,No
2017/03/26,01:30,0.388,0.235,0.399,0.367,0.333,0.194,0.165,north-northwest,1.9,No
2017/03/26,01:40,0.389,0.235,0.398,0.367,0.333,0.193,0.165,north,2.6,No
2017/03/26,01:50,0.388,0.234,0.398,0.367,0.333,0.193,0.165,north,3.1,No
2017/03/26,02:00,0.388,0.234,0.398,0.367,0.332,0.193,0.165,north,2.8,No
2017/03/26,02:10,0.390,0.234,0.398,0.367,0.332,0.194,0.165,north,2.7,No
2017/03/26,02:20,0.389,0.233,0.397,0.367,0.332,0.194,0.164,north,2.8,No
2017/03/26,02:30,0.390,0.234,0.398,0.369,0.332,0.193,0.165,north,3.3,No
2017/03/26,02:40,0.389,0.234,0.399,0.368,0.332,0.194,0.164,north,3.1,No
2017/03/26,02:50,0.389,0.233,0.398,0.367,0.333,0.193,0.165,north,3.4,No
2017/03/26,03:00,0.390,0.234,0.399,0.367,0.334,0.194,0.164,north,3.2,No
2017/03/26,03:10,0.389,0.235,0.398,0.367,0.333,0.194,0.164,north,3.5,No
2017/03/26,03:20,0.389,0.234,0.399,0.367,0.332,0.194,0.165,north,3.6,No
2017/03/26,03:30,0.389,0.234,0.398,0.366,0.333,0.194,0.165,north,3.6,No
2017/03/26,03:40,0.388,0.233,0.398,0.368,0.333,0.194,0.164,north,3.6,No
2017/03/26,03:50,0.388,0.235,0.398,0.366,0.333,0.194,0.165,north,3.6,No
2017/03/26,04:00,0.388,0.235,0.400,0.367,0.332,0.194,0.163,north,3.5,No
2017/03/26,04:10,0.389,0.235,0.398,0.367,0.332,0.194,0.163,north,3.1,No
2017/03/26,04:20,0.388,0.233,0.399,0.368,0.333,0.194,0.165,north,3.1,No
2017/03/26,04:30,0.389,0.233,0.399,0.365,0.334,0.194,0.164,north,2.2,No
2017/03/26,04:40,0.389,0.233,0.398,0.367,0.333,0.192,0.164,north,3.6,No
2017/03/26,04:50,0.388,0.236,0.399,0.366,0.331,0.194,0.165,north,3.4,No
2017/03/26,05:00,0.388,0.235,0.397,0.367,0.334,0.194,0.164,north,3.4,No
2017/03/26,05:10,0.388,0.234,0.398,0.367,0.332,0.193,0.164,north,3.5,No
2017/03/26,05:20,0.388,0.234,0.399,0.366,0.332,0.195,0.164,north,3.2,No
2017/03/26,05:30,0.389,0.235,0.399,0.366,0.332,0.194,0.164,north,3.2,No
2017/03/26,05:40,0.389,0.233,0.399,0.368,0.332,0.193,0.164,north,3.4,No
2017/03/26,05:50,0.388,0.233,0.397,0.368,0.331,0.193,0.165,north,3.8,No
2017/03/26,06:00,0.388,0.234,0.398,0.366,0.333,0.194,0.165,north,3.3,No
2017/03/26,06:10,0.388,0.233,0.400,0.367,0.333,0.193,0.164,north,3.0,No
2017/03/26,06:20,0.388,0.234,0.399,0.368,0.333,0.194,0.165,north,2.7,No
2017/03/26,06:30,0.388,0.235,0.397,0.367,0.334,0.193,0.164,north,2.8,No
2017/03/26,06:40,0.388,0.234,0.397,0.367,0.334,0.193,0.164,north,2.8,No
2017/03/26,06:50,0.386,0.233,0.397,0.366,0.332,0.192,0.163,north,1.9,No
2017/03/26,07:00,0.388,0.233,0.399,0.367,0.333,0.193,0.164,north-northwest,1.7,No
2017/03/26,07:10,0.389,0.234,0.398,0.368,0.335,0.193,0.164,north-northwest,2.2,No
2017/03/26,07:20,0.388,0.234,0.397,0.366,0.333,0.194,0.165,north,1.5,No
2017/03/26,07:30,0.386,0.233,0.395,0.366,0.332,0.193,0.164,north-northwest,1.4,No
2017/03/26,07:40,0.389,0.233,0.397,0.367,0.335,0.193,0.164,north-northwest,1.9,No
2017/03/26,07:50,0.389,0.234,0.395,0.366,0.333,0.192,0.163,north-northwest,1.6,No
2017/03/26,08:00,0.387,0.233,0.395,0.365,0.333,0.192,0.164,north-northwest,2.3,No
2017/03/26,08:10,0.388,0.234,0.399,0.367,0.334,0.194,0.164,north-northwest,2.0,No
2017/03/26,08:20,0.388,0.233,0.398,0.367,0.332,0.193,0.163,northwest,1.7,No
2017/03/26,08:30,0.387,0.235,0.397,0.366,0.331,0.193,0.164,north-northwest,2.3,No
2017/03/26,08:40,0.389,0.233,0.398,0.366,0.335,0.193,0.163,north-northwest,2.6,No
2017/03/26,08:50,0.388,0.233,0.397,0.368,0.333,0.194,0.163,north-northwest,1.6,No
2017/03/26,09:00,0.387,0.233,0.396,0.365,0.332,0.193,0.164,north,1.6,No
2017/03/26,09:10,0.388,0.233,0.397,0.367,0.333,0.194,0.164,northeast,1.0,No
2017/03/26,09:20,0.388,0.233,0.396,0.364,0.331,0.193,0.164,north-northeast,1.9,No
2017/03/26,09:30,0.386,0.233,0.394,0.366,0.333,0.193,0.163,north-northeast,3.0,No
2017/03/26,09:40,0.387,0.233,0.399,0.367,0.332,0.193,0.162,north-northeast,1.1,No
2017/03/26,09:50,0.387,0.234,0.397,0.365,0.331,0.194,0.164,north-northeast,2.7,No
2017/03/26,10:00,0.386,0.233,0.395,0.366,0.335,0.192,0.164,northeast,2.1,No
2017/03/26,10:10,0.386,0.234,0.398,0.365,0.332,0.192,0.164,north,2.6,No
2017/03/26,10:20,0.388,0.233,0.396,0.366,0.335,0.193,0.164,north-northeast,2.7,No
2017/03/26,10:30,0.388,0.232,0.397,0.367,0.331,0.194,0.163,northeast,3.1,No
2017/03/26,10:40,0.388,0.234,0.397,0.366,0.333,0.193,0.164,north-northeast,2.8,No
2017/03/26,10:50,0.387,0.234,0.396,0.368,0.332,0.192,0.164,northeast,2.5,No
2017/03/26,11:00,0.388,0.234,0.399,0.365,0.331,0.192,0.163,north-northeast,2.5,No
2017/03/26,11:10,0.386,0.235,0.396,0.366,0.333,0.193,0.164,north-northeast,3.1,No
2017/03/26,11:20,0.387,0.234,0.396,0.367,0.332,0.192,0.163,northeast,3.4,No
2017/03/26,11:30,0.390,0.233,0.399,0.365,0.334,0.192,0.164,northeast,2.8,No
2017/03/26,11:40,0.388,0.233,0.397,0.367,0.333,0.192,0.164,north-northeast,3.0,No
2017/03/26,11:50,0.389,0.233,0.396,0.366,0.333,0.193,0.163,north-northeast,3.0,No
2017/03/26,12:00,0.387,0.233,0.398,0.367,0.334,0.193,0.163,north-northeast,2.6,No
2017/03/26,12:10,0.388,0.235,0.396,0.366,0.331,0.193,0.164,northeast,3.0,No
2017/03/26,12:20,0.389,0.235,0.399,0.365,0.333,0.192,0.163,northeast,3.4,No
2017/03/26,12:30,0.388,0.234,0.395,0.368,0.331,0.193,0.164,northeast,2.6,No
2017/03/26,12:40,0.387,0.234,0.396,0.365,0.334,0.193,0.164,northeast,2.0,No
2017/03/26,12:50,0.390,0.233,0.400,0.368,0.334,0.193,0.163,northeast,2.3,Yes
2017/03/26,13:00,0.388,0.234,0.395,0.368,0.333,0.193,0.164,north-northeast,3.1,Yes
2017/03/26,13:10,0.390,0.235,0.398,0.367,0.334,0.193,0.165,northeast,3.4,No
2017/03/26,13:20,0.387,0.234,0.397,0.368,0.333,0.192,0.163,northeast,2.6,No
2017/03/26,13:30,0.389,0.233,0.396,0.365,0.332,0.193,0.163,northeast,2.1,No
2017/03/26,13:40,0.389,0.234,0.398,0.365,0.332,0.193,0.164,northeast,2.5,No
2017/03/26,13:50,0.389,0.235,0.397,0.366,0.331,0.193,0.164,northeast,2.0,No
2017/03/26,14:00,0.389,0.233,0.397,0.366,0.334,0.192,0.165,east-northeast,2.5,No
2017/03/26,14:10,0.388,0.235,0.398,0.368,0.333,0.193,0.164,northeast,2.3,No
2017/03/26,14:20,0.388,0.233,0.396,0.365,0.334,0.193,0.164,east-northeast,1.4,No
2017/03/26,14:30,0.389,0.233,0.398,0.367,0.333,0.193,0.164,east,2.4,Yes
2017/03/26,14:40,0.387,0.233,0.397,0.366,0.332,0.194,0.164,east,3.2,Yes
2017/03/26,14:50,0.389,0.234,0.396,0.368,0.334,0.193,0.165,east,3.5,Yes
2017/03/26,15:00,0.388,0.234,0.398,0.369,0.333,0.192,0.165,east-southeast,3.1,Yes
2017/03/26,15:10,0.388,0.234,0.396,0.368,0.332,0.193,0.165,east-southeast,2.3,Yes
2017/03/26,15:20,0.388,0.234,0.398,0.369,0.334,0.193,0.165,east-southeast,2.8,Yes
2017/03/26,15:30,0.389,0.234,0.397,0.368,0.333,0.192,0.164,east-southeast,3.0,Yes
2017/03/26,15:40,0.389,0.235,0.395,0.366,0.333,0.193,0.164,east-southeast,3.2,Yes
2017/03/26,15:50,0.388,0.234,0.398,0.368,0.334,0.194,0.165,east-southeast,2.7,Yes
2017/03/26,16:00,0.388,0.234,0.398,0.368,0.333,0.193,0.165,east-southeast,2.9,Yes
2017/03/26,16:10,0.390,0.234,0.397,0.367,0.335,0.194,0.164,east-southeast,3.9,Yes
2017/03/26,16:20,0.388,0.234,0.398,0.369,0.334,0.193,0.164,east-southeast,3.9,Yes
2017/03/26,16:30,0.387,0.234,0.398,0.366,0.333,0.193,0.164,southeast,4.2,Yes
2017/03/26,16:40,0.388,0.234,0.396,0.366,0.334,0.194,0.163,southeast,5.6,Yes
2017/03/26,16:50,0.387,0.235,0.398,0.369,0.334,0.193,0.164,east-southeast,6.0,Yes
2017/03/26,17:00,0.388,0.234,0.398,0.368,0.333,0.194,0.165,southeast,5.8,Yes
2017/03/26,17:10,0.388,0.234,0.397,0.366,0.332,0.193,0.164,southeast,4.6,Yes
2017/03/26,17:20,0.389,0.234,0.397,0.367,0.334,0.193,0.164,east-southeast,3.9,Yes
2017/03/26,17:30,0.388,0.235,0.399,0.366,0.333,0.194,0.166,east-southeast,4.0,Yes
2017/03/26,17:40,0.388,0.234,0.397,0.367,0.332,0.193,0.164,east-southeast,3.5,Yes
2017/03/26,17:50,0.389,0.234,0.397,0.367,0.333,0.194,0.165,east-southeast,4.6,Yes
2017/03/26,18:00,0.388,0.233,0.396,0.367,0.333,0.193,0.166,east-southeast,4.1,Yes
2017/03/26,18:10,0.388,0.233,0.396,0.365,0.331,0.194,0.166,east-southeast,2.2,Yes
2017/03/26,18:20,0.388,0.234,0.396,0.366,0.334,0.193,0.164,east,2.9,Yes
2017/03/26,18:30,0.387,0.233,0.396,0.365,0.332,0.194,0.165,east-southeast,2.0,Yes
2017/03/26,18:40,0.386,0.234,0.395,0.365,0.331,0.193,0.165,east-northeast,2.2,Yes
2017/03/26,18:50,0.386,0.234,0.394,0.365,0.331,0.194,0.165,east-northeast,1.4,Yes
2017/03/26,19:00,0.386,0.233,0.395,0.363,0.333,0.194,0.165,northeast,1.5,Yes
2017/03/26,19:10,0.386,0.234,0.395,0.365,0.330,0.192,0.164,northeast,2.2,Yes
2017/03/26,19:20,0.386,0.233,0.392,0.363,0.332,0.193,0.164,northeast,3.3,Yes
2017/03/26,19:30,0.386,0.233,0.394,0.363,0.333,0.194,0.164,north-northeast,1.9,Yes
2017/03/26,19:40,0.386,0.233,0.393,0.365,0.331,0.193,0.163,north-northeast,3.0,Yes
2017/03/26,19:50,0.386,0.233,0.393,0.363,0.331,0.193,0.165,north-northeast,3.1,Yes
2017/03/26,20:00,0.386,0.233,0.392,0.363,0.330,0.192,0.164,north,3.7,Yes
2017/03/26,20:10,0.386,0.233,0.393,0.363,0.330,0.192,0.162,north-northeast,3.8,Yes
2017/03/26,20:20,0.385,0.233,0.392,0.362,0.329,0.192,0.163,north-northeast,4.0,Yes
2017/03/26,20:30,0.384,0.232,0.391,0.361,0.329,0.193,0.163,north-northeast,5.3,Yes
2017/03/26,20:40,0.386,0.233,0.393,0.362,0.330,0.192,0.163,north-northeast,4.9,Yes
2017/03/26,20:50,0.384,0.233,0.393,0.361,0.330,0.194,0.165,north,5.4,Yes
2017/03/26,21:00,0.385,0.234,0.392,0.361,0.329,0.194,0.164,north,5.2,Yes
2017/03/26,21:10,0.385,0.233,0.392,0.361,0.330,0.193,0.165,north,5.0,Yes
2017/03/26,21:20,0.385,0.233,0.391,0.361,0.331,0.193,0.163,north,5.5,Yes
2017/03/26,21:30,0.384,0.232,0.390,0.360,0.330,0.193,0.164,north,6.0,Yes
2017/03/26,21:40,0.382,0.233,0.390,0.359,0.327,0.192,0.164,north,6.7,Yes
2017/03/26,21:50,0.382,0.232,0.389,0.359,0.328,0.193,0.163,north-northwest,6.6,Yes
2017/03/26,22:00,0.383,0.232,0.387,0.358,0.328,0.193,0.162,north,7.1,Yes
2017/03/26,22:10,0.381,0.232,0.386,0.357,0.328,0.192,0.163,north-northwest,7.1,Yes
2017/03/26,22:20,0.381,0.232,0.387,0.357,0.327,0.191,0.163,north-northwest,7.8,Yes
2017/03/26,22:30,0.381,0.231,0.385,0.357,0.327,0.193,0.162,north-northwest,7.7,Yes
2017/03/26,22:40,0.381,0.230,0.383,0.355,0.327,0.192,0.163,north-northwest,8.2,Yes
2017/03/26,22:50,0.380,0.232,0.385,0.355,0.327,0.192,0.162,north-northwest,7.6,Yes
2017/03/26,23:00,0.379,0.231,0.384,0.355,0.327,0.192,0.162,north-northwest,7.3,Yes
2017/03/26,23:10,0.378,0.230,0.384,0.356,0.327,0.191,0.163,north-northwest,6.4,Yes
2017/03/26,23:20,0.379,0.231,0.384,0.354,0.327,0.190,0.162,north-northwest,6.9,Yes
2017/03/26,23:30,0.381,0.229,0.382,0.354,0.327,0.190,0.162,north-northwest,6.9,Yes
2017/03/26,23:40,0.379,0.230,0.381,0.352,0.327,0.191,0.161,north-northwest,6.9,Yes
2017/03/26,23:50,0.378,0.230,0.383,0.353,0.326,0.190,0.162,north-northwest,6.9,Yes
